Location: Newark
(43.6583°N, 1.6617°E)
Time: 13:13:53
(UTC+00:00)

Courier 1B - Pass Details

Date: 27 August 2019
Orbit: 962 x 1209 km, 28.3° (Epoch: 22 September)

Event Time Altitude Azimuth Distance (km) Brightness Sun altitude
Rises 18:28:09 0° 249° (WSW) 3,811 11.7 0.9°
Reaches altitude 10° 18:31:43 10° 233° (SW) 2,811 10.5 0.3°
Maximum altitude 18:36:18 19° 190° (S) 2,160 9.3 -0.5°
Drops below altitude 10° 18:40:45 10° 147° (SSE) 2,718 9.4 -1.3°
Sets 18:44:08 0° 130° (SE) 3,643 9.9 -1.9°
